Terminal Aerodrome Forecast
Issued by NWS

Home | Current Version | Previous Version | Text Only | Print | Product List | Glossary On
Versions: 1 2 3 4 5 6 7 8 9 10 11 12 13 14 15 16 17 18 19
000
FTUS43 KMQT 242300
TAFCMX
TAF
KCMX 242338Z 2500/2524 19006KT P6SM SCT040 BKN200 WS010/25030KT
     FM250300 25010KT P6SM BKN200
     FM250600 28017G24KT P6SM SCT200
     FM251300 28024G33KT P6SM SKC=

USA.gov is the U.S. government's official web portal to all federal, state and local government web resources and services.